Find JD2

NORAD ID: 14729 Int'l Des: 1984-012 Owner: NRO/NRL Country: US operational
LEO

現在のビュー

3D地球を読み込み中...

JD2について

説明を読み込み中...

次回通過

Passes for default location (London). Set your location on the main map for personalized predictions.

高度履歴

Loading altitude history...

軌道要素

1 14729U 84012D 26150.04551770 .00003072 00000-0 37754-3 0 9992
2 14729 63.3063 85.3647 0745202 128.2017 238.8568 13.75998263341416
Epoch: May 30, 2026 • Age: 8 hours

現在のステータス

高度 944.4 km
速度 7.40 km/s
衛星直下点 -33.39°S, 99.92°W
打ち上げ日 Feb 5, 1984
運用期間 42.3 years
タイプ other

技術仕様

分類 Payload
質量 200.00 kg
乾燥質量 200.00 kg
総質量 200.00 kg
長さ 0.90 m
直径 0.40 m
スパン 10.00 m
形状 Box + Ant
製造者 MM
バスタイプ NOSS SSU
フェーズステータス In Orbit
所有者/国 NRO/NRL/US

Most Searched